Tracking 22124 objects as of 23-Jan-2021
HD Live streaming from Space Station
objects crossing your sky now

CZ-11 R/B

Track CZ-11 R/B now!
10-day predictions


NORAD ID: 46463
Int'l Code: 2020-065K
Perigee: 212.9 km
Apogee: 392.7 km
Inclination: 97.4 °
Period: 90.4 minutes
Semi major axis: 6673 km
RCS: Unknown
Launch date: September 15, 2020
Source: People's Republic of China (PRC)
Launch site: Yellow Sea Launch Area, China (YSLA)

Note: This is a ROCKET BODY
aabbcc
Your satellite tracking list
Your tracking list is empty




NASA's NSSDC Master Catalog

Two Line Element Set (TLE):
1 46463U 20065K   21023.15515603  .00303850  22994-5  37512-3 0  9991
2 46463  97.4405  93.0189 0134688 188.7514 171.1412 15.92375963 20388
Source of the keplerian elements: AFSPC